GW1480 Weather Reports


Display with metric or nautical units.
time (UTC)temp
F
wind
direction
speed
MPH
gust
MPH
rain 1hr
in
rain 24hr
in
rain mn
in
humidity
%
barometer
mb
20260509073323 51 203 0.0 0.0 0.00 0.00 0.00 92 1012.8
20260509072738 51 180 1.0 2.0 0.00 0.00 0.00 92 1012.8
20260509071519 51 212 1.0 2.0 0.00 0.00 0.00 91 1012.8
20260509070324 51 229 0.0 2.0 0.00 0.00 0.00 91 1012.8
20260509065751 50 109 0.0 0.0 0.00 0.00 0.00 92 1012.8
20260509064519 50 197 0.0 0.0 0.00 0.00 0.00 92 1012.8
20260509063914 50 167 0.0 0.0 0.00 0.00 0.00 92 1012.8
20260509063311 50 199 0.0 0.0 0.00 0.00 0.00 92 1013.2
20260509062719 50 191 0.0 0.0 0.00 0.00 0.00 93 1012.8
20260509062128 50 177 0.0 0.0 0.00 0.00 0.00 93 1012.8
20260509060912 50 225 0.0 0.0 0.00 0.00 0.00 92 1012.8
20260509060335 50 184 0.0 0.0 0.00 0.00 0.00 92 1013.2
20260509054513 50 200 0.0 0.0 0.00 0.00 0.00 91 1013.2
20260509053935 50 191 0.0 0.0 0.00 0.00 0.00 90 1013.2
20260509053347 50 158 0.0 0.0 0.00 0.00 0.00 90 1012.8
20260509052735 50 212 0.0 0.0 0.00 0.00 0.00 91 1013.2
20260509052136 50 230 0.0 0.0 0.00 0.00 0.00 91 1013.2
20260509051536 50 162 0.0 0.0 0.00 0.00 0.00 91 1013.2
20260509050939 50 227 0.0 0.0 0.00 0.00 0.00 91 1012.8
20260509045724 50 208 0.0 0.0 0.00 0.00 0.00 92 1013.2
20260509045135 50 221 0.0 0.0 0.00 0.00 0.00 92 1013.2
20260509044542 50 221 0.0 0.0 0.00 0.00 0.00 91 1013.5
20260509043947 50 216 0.0 0.0 0.00 0.00 0.00 92 1013.2
20260509043336 50 201 0.0 0.0 0.00 0.00 0.00 93 1013.5
20260509042740 50 214 0.0 0.0 0.00 0.00 0.00 92 1013.5
20260509042147 50 227 0.0 0.0 0.00 0.00 0.00 92 1013.5
20260509041539 50 226 0.0 0.0 0.00 0.00 0.00 91 1013.2
20260509040310 50 244 0.0 0.0 0.00 0.00 0.00 90 1013.5
20260509035750 50 227 0.0 0.0 0.00 0.00 0.00 91 1013.5
20260509035153 50 226 0.0 0.0 0.00 0.00 0.00 92 1013.5
20260509034542 50 238 0.0 0.0 0.00 0.00 0.00 91 1013.5
20260509033926 50 231 0.0 0.0 0.00 0.00 0.00 92 1013.5
20260509033318 50 233 0.0 0.0 0.00 0.00 0.00 92 1013.8
20260509031510 50 226 0.0 0.0 0.00 0.00 0.00 92 1013.5
20260509030315 50 226 0.0 0.0 0.00 0.00 0.00 91 1013.8
20260509025711 51 229 0.0 0.0 0.00 0.00 0.00 90 1013.5
20260509025140 51 227 0.0 0.0 0.00 0.00 0.00 90 1013.8
20260509024550 51 226 0.0 0.0 0.00 0.00 0.00 89 1013.8
20260509023918 52 228 0.0 0.0 0.00 0.00 0.00 89 1014.2
20260509023313 52 231 0.0 0.0 0.00 0.00 0.00 87 1014.2
20260509022717 52 226 0.0 0.0 0.00 0.00 0.00 87 1014.2
20260509021510 53 206 0.0 0.0 0.00 0.00 0.00 86 1014.2
20260509020909 54 226 0.0 0.0 0.00 0.00 0.00 86 1014.2
20260509020312 54 218 0.0 0.0 0.00 0.00 0.00 85 1014.2
20260509015739 55 227 0.0 0.0 0.00 0.00 0.00 84 1013.8
20260509015127 55 219 0.0 0.0 0.00 0.00 0.00 83 1014.2
20260509014516 56 225 0.0 0.0 0.00 0.00 0.00 81 1013.8
20260509013934 56 231 0.0 0.0 0.00 0.00 0.00 82 1013.8
20260509013344 56 228 0.0 0.0 0.00 0.00 0.00 78 1013.8
20260509012746 56 229 0.0 0.0 0.00 0.00 0.00 79 1013.8
20260509012113 56 222 0.0 0.0 0.00 0.00 0.00 79 1013.5
20260509010930 56 226 0.0 0.0 0.00 0.00 0.00 81 1013.8
20260509010308 57 224 0.0 0.0 0.00 0.00 0.00 78 1013.8
20260509005746 57 229 0.0 0.0 0.00 0.00 0.00 77 1013.8
20260509005138 57 230 0.0 0.0 0.00 0.00 0.00 78 1013.8
20260509004522 57 229 0.0 0.0 0.00 0.00 0.00 74 1013.5
20260509003315 58 223 0.0 0.0 0.00 0.00 0.00 76 1013.5
20260509002713 58 226 0.0 0.0 0.00 0.00 0.00 75 1013.8
20260509002119 59 234 0.0 0.0 0.00 0.00 0.00 71 1013.8
20260509001537 60 236 0.0 0.0 0.00 0.00 0.00 68 1013.8
20260509000941 60 236 0.0 0.0 0.00 0.00 0.00 69 1013.5
20260509000311 61 250 0.0 0.0 0.00 0.00 0.00 72 1013.5
20260508235713 62 235 0.0 0.0 0.00 0.00 0.00 72 1013.5
20260508235117 64 242 0.0 0.0 0.00 0.00 0.00 70 1013.5
20260508234534 65 243 0.0 0.0 0.00 0.00 0.00 67 1013.5
20260508233914 67 241 0.0 0.0 0.00 0.00 0.00 65 1013.5
20260508233309 68 238 0.0 0.0 0.00 0.00 0.00 65 1013.5
20260508232725 69 247 0.0 0.0 0.00 0.00 0.00 58 1013.8
20260508232135 70 217 0.0 0.0 0.00 0.00 0.00 53 1013.8
20260508231513 71 227 0.0 0.0 0.00 0.00 0.00 56 1013.5
20260508230947 71 239 0.0 0.0 0.00 0.00 0.00 50 1013.8
20260508230323 72 267 0.0 2.0 0.00 0.00 0.00 41 1013.8
20260508225749 72 244 0.0 0.0 0.00 0.00 0.00 42 1014.2
20260508225148 72 227 3.0 5.0 0.00 0.00 0.00 40 1013.5
20260508224518 73 245 0.0 0.0 0.00 0.00 0.00 40 1013.8
20260508223947 73 319 3.0 5.0 0.00 0.00 0.00 38 1013.8
20260508223318 73 330 5.0 7.0 0.00 0.00 0.00 33 1013.5
20260508222127 72 174 0.0 2.0 0.00 0.00 0.00 34 1013.8
20260508221541 72 34 4.0 7.0 0.00 0.00 0.00 35 1013.8
20260508220935 72 10 0.0 0.0 0.00 0.00 0.00 35 1013.5
20260508220310 73 277 4.0 7.0 0.00 0.00 0.00 34 1013.8
20260508215732 73 42 0.0 0.0 0.00 0.00 0.00 35 1013.8
20260508214546 73 149 0.0 0.0 0.00 0.00 0.00 35 1013.8
20260508213913 73 112 6.0 10.0 0.00 0.00 0.00 36 1013.8
20260508212116 73 262 2.0 5.0 0.00 0.00 0.00 34 1014.2
20260508211515 74 310 0.0 0.0 0.00 0.00 0.00 36 1013.8
20260508210918 74 359 7.0 10.0 0.00 0.00 0.00 34 1013.8
20260508210319 74 143 0.0 0.0 0.00 0.00 0.00 36 1014.2
20260508205739 73 222 6.0 10.0 0.00 0.00 0.00 35 1013.8
20260508205124 73 192 3.0 5.0 0.00 0.00 0.00 34 1013.8
20260508204551 73 260 0.0 2.0 0.00 0.00 0.00 35 1014.2
20260508203919 73 84 0.0 2.0 0.00 0.00 0.00 37 1014.2
20260508203320 73 244 0.0 0.0 0.00 0.00 0.00 34 1014.2
20260508202734 73 260 0.0 2.0 0.00 0.00 0.00 35 1014.5
20260508202114 72 338 0.0 2.0 0.00 0.00 0.00 37 1014.2
20260508201518 72 199 0.0 0.0 0.00 0.00 0.00 42 1014.5
20260508200949 72 250 3.0 5.0 0.00 0.00 0.00 36 1014.9
20260508200343 72 56 3.0 5.0 0.00 0.00 0.00 37 1014.5
20260508195740 72 270 0.0 2.0 0.00 0.00 0.00 37 1014.9
20260508195133 72 43 3.0 5.0 0.00 0.00 0.00 36 1014.9
20260508194552 72 263 0.0 0.0 0.00 0.00 0.00 34 1015.2
20260508193931 72 65 0.0 0.0 0.00 0.00 0.00 41 1015.2
20260508193322 72 309 2.0 5.0 0.00 0.00 0.00 39 1015.2
20260508192726 72 314 0.0 2.0 0.00 0.00 0.00 37 1015.2
20260508192146 71 210 1.0 2.0 0.00 0.00 0.00 36 1015.9
20260508191549 71 102 0.0 5.0 0.00 0.00 0.00 42 1015.5
20260508190936 71 80 1.0 5.0 0.00 0.00 0.00 38 1015.9
20260508190343 71 343 6.0 10.0 0.00 0.00 0.00 39 1016.2
20260508185114 71 127 0.0 2.0 0.00 0.00 0.00 40 1016.2
20260508184545 70 5 2.0 5.0 0.00 0.00 0.00 38 1016.5
20260508183944 70 264 1.0 5.0 0.00 0.00 0.00 43 1016.2
20260508183338 70 7 2.0 5.0 0.00 0.00 0.00 45 1016.5
20260508182736 70 334 5.0 7.0 0.00 0.00 0.00 37 1016.5
20260508181532 70 68 0.0 2.0 0.00 0.00 0.00 40 1016.9
20260508180921 70 299 6.0 7.0 0.00 0.00 0.00 40 1016.9
20260508180349 69 220 5.0 7.0 0.00 0.00 0.00 40 1016.9
20260508175740 70 329 0.0 2.0 0.00 0.00 0.00 40 1017.2
20260508175143 69 102 0.0 0.0 0.00 0.00 0.00 42 1016.9
20260508174511 69 61 2.0 5.0 0.00 0.00 0.00 39 1017.2
20260508173923 69 1 6.0 10.0 0.00 0.00 0.00 38 1017.2
20260508173320 69 260 1.0 2.0 0.00 0.00 0.00 41 1017.2
20260508172740 68 266 2.0 5.0 0.00 0.00 0.00 42 1017.2
20260508172148 68 201 3.0 7.0 0.00 0.00 0.00 42 1017.2
20260508170941 68 173 4.0 5.0 0.00 0.00 0.00 41 1017.6
20260508170314 68 8 0.0 0.0 0.00 0.00 0.00 43 1017.6
20260508165709 68 285 0.0 2.0 0.00 0.00 0.00 43 1017.9
20260508165120 68 50 4.0 5.0 0.00 0.00 0.00 43 1017.9
20260508164533 67 119 1.0 5.0 0.00 0.00 0.00 43 1018.2
20260508163331 66 246 0.0 0.0 0.00 0.00 0.00 44 1018.6
20260508162723 66 9 2.0 2.0 0.00 0.00 0.00 43 1018.6
20260508162130 66 172 1.0 2.0 0.00 0.00 0.00 40 1018.6
20260508161515 66 204 3.0 5.0 0.00 0.00 0.00 46 1018.6
20260508160931 66 226 5.0 7.0 0.00 0.00 0.00 43 1018.9
20260508160338 66 47 4.0 7.0 0.00 0.00 0.00 43 1018.9
20260508155110 66 279 5.0 7.0 0.00 0.00 0.00 46 1018.9
20260508154521 65 289 2.0 5.0 0.00 0.00 0.00 42 1019.3
20260508153937 65 271 6.0 7.0 0.00 0.00 0.00 43 1018.9
20260508153342 65 275 0.0 2.0 0.00 0.00 0.00 45 1018.9
20260508152746 65 44 1.0 2.0 0.00 0.00 0.00 44 1018.9
20260508151536 65 254 0.0 0.0 0.00 0.00 0.00 45 1018.9
20260508150945 64 251 0.0 0.0 0.00 0.00 0.00 50 1018.9
20260508145746 64 203 3.0 5.0 0.00 0.00 0.00 45 1018.9
20260508145148 63 220 0.0 2.0 0.00 0.00 0.00 50 1018.9
20260508143942 63 344 3.0 5.0 0.00 0.00 0.00 48 1019.3
20260508142727 62 191 3.0 5.0 0.00 0.00 0.00 53 1019.3
20260508142149 62 350 4.0 7.0 0.00 0.00 0.00 51 1019.3
20260508141518 61 48 5.0 7.0 0.00 0.00 0.00 49 1019.3
20260508140936 61 254 0.0 0.0 0.00 0.00 0.00 48 1018.9
20260508135748 60 285 3.0 5.0 0.00 0.00 0.00 53 1019.3
20260508135146 59 68 1.0 2.0 0.00 0.00 0.00 58 1019.3
20260508134522 58 125 0.0 2.0 0.00 0.00 0.00 58 1019.3
20260508133916 57 82 2.0 5.0 0.00 0.00 0.00 62 1019.3
20260508133312 56 89 2.0 2.0 0.00 0.00 0.00 63 1019.3
20260508132726 54 107 2.0 5.0 0.00 0.00 0.00 66 1019.3
20260508132122 53 108 1.0 2.0 0.00 0.00 0.00 69 1019.3
20260508130308 49 118 2.0 5.0 0.00 0.00 0.00 73 1019.6
20260508125126 46 132 0.0 0.0 0.00 0.00 0.00 80 1019.6
20260508123936 43 76 0.0 2.0 0.00 0.00 0.00 97 1019.3
20260508123350 42 77 0.0 0.0 0.00 0.00 0.00 98 1019.3
20260508122731 40 140 0.0 0.0 0.00 0.00 0.00 98 1019.3
20260508122120 39 86 0.0 0.0 0.00 0.00 0.00 98 1019.3
20260508121537 37 87 2.0 5.0 0.00 0.00 0.00 98 1019.3
20260508120920 36 219 0.0 0.0 0.00 0.00 0.00 98 1019.3
20260508115710 34 222 0.0 0.0 0.00 0.00 0.00 98 1019.3
20260508115148 34 227 0.0 0.0 0.00 0.00 0.00 98 1019.6
20260508114519 34 226 0.0 0.0 0.00 0.00 0.00 98 1019.3
20260508113930 34 232 0.0 0.0 0.00 0.00 0.00 98 1019.3
20260508113316 33 230 0.0 0.0 0.00 0.00 0.00 98 1018.9
20260508112719 33 235 0.0 0.0 0.00 0.00 0.00 98 1019.6
20260508112143 33 230 0.0 0.0 0.00 0.00 0.00 98 1018.9
20260508111542 33 232 0.0 0.0 0.00 0.00 0.00 98 1018.9
20260508110922 33 228 0.0 0.0 0.00 0.00 0.00 98 1018.9
20260508110326 33 226 0.0 0.0 0.00 0.00 0.00 98 1018.9
20260508105142 33 232 0.0 0.0 0.00 0.00 0.00 98 1018.9
20260508103936 33 226 0.0 0.0 0.00 0.00 0.00 98 1018.9
20260508103338 33 230 0.0 0.0 0.00 0.00 0.00 98 1018.9
20260508102715 33 226 0.0 0.0 0.00 0.00 0.00 98 1018.6
20260508102115 33 234 0.0 0.0 0.00 0.00 0.00 98 1018.9
20260508101512 33 232 0.0 0.0 0.00 0.00 0.00 98 1018.6
20260508100938 33 240 0.0 0.0 0.00 0.00 0.00 98 1018.9
20260508100331 33 235 0.0 0.0 0.00 0.00 0.00 98 1018.2
20260508095748 33 228 0.0 0.0 0.00 0.00 0.00 98 1018.6
20260508095130 33 229 0.0 0.0 0.00 0.00 0.00 98 1018.6
20260508094522 34 228 0.0 0.0 0.00 0.00 0.00 98 1018.2
20260508093943 34 230 0.0 0.0 0.00 0.00 0.00 98 1018.2
20260508092722 33 226 0.0 0.0 0.00 0.00 0.00 98 1018.2
20260508092142 33 228 0.0 0.0 0.00 0.00 0.00 98 1018.2
20260508091528 33 226 0.0 0.0 0.00 0.00 0.00 98 1018.2
20260508090932 34 224 0.0 0.0 0.00 0.00 0.00 98 1018.6
20260508085139 34 237 0.0 0.0 0.00 0.00 0.00 98 1018.2
20260508084547 34 226 0.0 0.0 0.00 0.00 0.00 98 1018.2
20260508083912 34 228 0.0 0.0 0.00 0.00 0.00 98 1018.2
20260508083313 34 229 0.0 0.0 0.00 0.00 0.00 98 1018.2
20260508082735 34 229 0.0 0.0 0.00 0.00 0.00 98 1018.2
20260508082150 34 229 0.0 0.0 0.00 0.00 0.00 98 1017.9
20260508081537 34 233 0.0 0.0 0.00 0.00 0.00 98 1018.2
20260508080328 34 220 0.0 0.0 0.00 0.00 0.00 98 1018.2
20260508075731 34 222 0.0 0.0 0.00 0.00 0.00 98 1017.9
20260508075120 34 226 0.0 0.0 0.00 0.00 0.00 98 1018.2